Regional Weather Roundup
Issued by NWS Lake Charles, LA

Home | Current Version | Previous Version | Text Only | Print | Product List | Glossary On
Versions: 1 2 3 4 5 6 7 8 9 10 11 12 13 14 15 16 17 18 19 20 21 22 23 24 25 26 27
000
ASUS44 KLCH 040910
RWRLCH
REGIONAL WEATHER ROUNDUP
NATIONAL WEATHER SERVICE LAKE CHARLES LA
300 AM CST SUN DEC 04 2016

Note: "fair" indicates few or no clouds below 12,000 feet with no
significant weather and/or obstructions to visibility.


ACROSS SOUTHEAST TEXAS

CITY           SKY/WX    TMP DP  RH WIND       PRES   REMARKS
BEAUMONT       CLOUDY    53  51  93 N13       29.90R
BEAUMONT CITY  LGT RAIN  53  51  94 N12       29.93R
ORANGE         CLOUDY   N/A N/A N/A NW6       29.94R FOG
JASPER         CLOUDY    51  50  97 NW6       29.96R
$$

ACROSS CENTRAL LOUISIANA

CITY           SKY/WX    TMP DP  RH WIND       PRES   REMARKS
LEESVILLE      FOG       50  49  98 N9        29.90F VSB 5/8
FULLERTON      CLOUDY    51  50  96 NW5       29.88F FOG
ALEXANDRIA INT LGT RAIN  49  49 100 NW9       29.90S FOG
ESLER FIELD    CLOUDY    50  49  96 N7        29.91R FOG
DERIDDER       CLOUDY    51  49  95 CALM      29.93R FOG
OAKDALE        CLOUDY    52  52  98 NW8       29.89R FOG
OPELOUSAS      CLOUDY    64  64  99 SE14G20   29.80F
$$

ACROSS SOUTHWEST AND SOUTH CENTRAL LOUISIANA

CITY           SKY/WX    TMP DP  RH WIND       PRES   REMARKS
SULPHUR        LGT RAIN  56  55  99 NW10      29.89R
LAKE CHARLES   LGT RAIN  56  56 100 NW9       29.86R FOG
CHENNAULT INT  CLOUDY    55  55 100 N8        29.85F
CAMERON PHI      N/A     57  57 100 NW10G17   29.85R
DEQUINCY       CLOUDY    51  51  99 NW8       29.89S FOG
JENNINGS       LGT RAIN  64  64 100 W9        29.86R
LAFAYETTE      LGT RAIN  67  66  97 SE7       29.87R
NEW IBERIA     LGT RAIN  65  63  93 SE7       29.89R
ABBEVILLE      RAIN      64  64 100 E6        29.87F
PATTERSON      CLOUDY   N/A N/A N/A NW9       29.90R FOG
SALT POINT     NOT AVBL
$$

SELECTED SITES ACROSS THE REGION

CITY           SKY/WX    TMP DP  RH WIND       PRES   REMARKS
HOUSTON BUSH   LGT RAIN  52  52 100 N12       29.92S FOG
HOUSTON HOBBY  RAIN      53  52  96 N10       29.87F
GALVESTON      LGT RAIN  57  55  93 N15       29.89F FOG
COLLEGE STAT   CLOUDY    50  49  96 N10       29.91S
CONROE         LGT RAIN  49  49 100 E16       29.80F FOG
HUNTSVILLE     CLOUDY    50  48  93 VRB5      29.90R
LUFKIN         CLOUDY    47  46  97 E12       29.86F
SHREVEPORT     CLOUDY    49  48  97 NE5       29.95R
MONROE         LGT RAIN  47  45  93 N10       29.99R FOG
NATCHEZ MS     CLOUDY    48  46  93 N7        29.87R
BATON ROUGE    TSTM      61  60  97 E15       29.91F FOG
N.O. INTL ARPT LGT RAIN  63  63 100 NE3       29.90F FOG
SLIDELL        CLOUDY    62  60  93 NE6       29.91F
$$

MARINE REPORTS

STATION/POSITION TIME  SKY/WX   TEMP    WIND        PRES    VSBY
                                AIR SEA DIR/SP/G
                 (UTC)          (F)     (DEG/KT/KT) (MB)    (MI)
BUOY 30 S HIGH I 0850            58 68  320/ 19/ 23 1011.8R
WVE H/P(F/S)=  4/ 8

SEA RIM ST PARK  0900            53     320/ 11/ 14 1014.0R
PORT ARTHUR      0848               61  330/ 10/ 14 1012.4R
SABINE PASS N    0848            54 62  320/ 13/ 18 1013.1R
TEXAS POINT      NOT AVBL
CALCASIEU PASS   0848            56 61  350/ 12/ 14   N/A
LK CHARLES BEACH 0848            55 61              1011.3F
MARSH ISLAND     0800            67                   N/A
FRESH WATER LOCK 0848            67 62  100/  3/  6 1011.3F
AMERADA PASS     0848            69 62   90/  5/  6 1011.2F
$$




USA.gov is the U.S. government's official web portal to all federal, state and local government web resources and services.